Retour au catalogue

HYPERION-GR1

ActifScienceSSO
NORAD 69883·PAYLOAD·🇩🇪 Germany

Lancé Jul 7, 2026 depuis Vandenberg Space Force Base

Loading…

Prochains Passages (prochaines 24 heures)

TLE

FraisSource: Space-Track

Époque: Sep 14, 2026, 12:29 UTC

1 69883U 26156Q   26257.52015854  .00000642  00000-0  70246-4 0  9991
2 69883  97.7464 156.7706 0003782 286.7429  73.3374 14.91182893 10311

Suivez HYPERION-GR1 en temps réel avec AllMySat

Download on the App Store